Location: Unspecified
(40.7945°N, 111.1337°W)
Time: 13:51:34
(UTC-06:00)

Okean 3 - Pass Details

Date: 28 March 2019
Orbit: 576 x 602 km, 82.5° (Epoch: 23 April)

Event Time Altitude Azimuth Distance (km) Brightness Sun altitude
Exits shadow 06:20:56 13° 236° (SW) 1,726 5.3 -10.9°
Maximum altitude 06:23:48 25° 286° (WNW) 1,233 4.6 -10.4°
Drops below altitude 10° 06:27:22 10° 341° (NNW) 1,949 6.1 -9.7°
Sets 06:29:55 0° 355° (N) 2,855 7.1 -9.3°
